Location: Newark
(44.3248°N, 23.7839°E)
Time: 03:48:18
(UTC+00:00)

O/OREOS (USA 219) - Visible Passes

Search period start: 16 April 2024 00:00
Search period end: 26 April 2024 00:00
Orbit: 621 x 646 km, 72.0° (Epoch: 22 May)

Date Brightness Start Highest point End Pass type
(mag) Time Alt. Az. Time Alt. Az. Time Alt. Az.
16 Apr ? 01:58:18 10° N 02:01:11 16° NE 02:04:02 10° E visible
16 Apr ? 17:50:02 10° SSW 17:54:37 76° WNW 17:59:12 10° NNE visible
16 Apr ? 19:33:23 10° WNW 19:34:51 11° NW 19:36:18 10° NNW visible
17 Apr ? 02:19:34 10° N 02:23:35 31° ENE 02:27:34 10° ESE visible
17 Apr ? 18:12:33 10° SW 18:16:47 36° WNW 18:21:02 10° N visible
18 Apr ? 02:41:19 10° NNW 02:45:49 64° ENE 02:50:15 10° SE visible
18 Apr ? 18:35:52 10° W 18:39:09 19° NW 18:42:27 10° N visible
19 Apr ? 01:24:57 10° N 01:28:03 18° NE 01:31:06 10° E visible
19 Apr ? 19:01:03 10° NW 19:01:44 10° NW 19:02:26 10° NW visible
20 Apr ? 01:46:20 10° N 01:50:26 33° ENE 01:54:30 10° SE visible
20 Apr ? 17:39:30 10° WSW 17:43:38 33° WNW 17:47:47 10° N visible
21 Apr ? 00:31:33 10° NE 00:32:20 10° NE 00:33:08 10° NE visible
21 Apr ? 02:08:07 10° NNW 02:12:38 71° ENE 02:17:05 10° SSE visible
21 Apr ? 18:02:57 10° W 18:06:02 18° NW 18:09:07 10° N visible
22 Apr ? 00:51:39 10° N 00:54:54 19° NE 00:58:09 10° E visible
22 Apr ? 02:30:16 10° NNW 02:34:38 52° WSW 02:38:58 10° S visible
23 Apr ? 01:13:04 10° N 01:17:17 37° ENE 01:21:26 10° SE visible
23 Apr ? 02:52:53 10° NW 02:56:28 24° WSW 03:00:01 10° SSW visible
23 Apr ? 23:57:46 10° NNE 23:59:14 11° NE 00:00:42 10° ENE visible
24 Apr ? 01:34:55 10° NNW 01:39:27 79° ENE 01:43:54 10° SSE visible
25 Apr ? 00:18:20 10° N 00:21:46 21° NE 00:25:11 10° ESE visible
25 Apr ? 01:57:07 10° NW 02:01:25 46° WSW 02:05:40 10° S visible
